EN

Hourly Weather Almedijar

Today, 15 January, Friday

Time Temperature Precipitation Wind Pressure Humidity
00:00 +4°C° 0 mm 4 mps 721 mmHg 74%
01:00 +4°C° 0 mm 4 mps 720 mmHg 74%
02:00 +4°C° 0 mm 4 mps 720 mmHg 73%
03:00 +3°C° 0 mm 4 mps 720 mmHg 72%
04:00 +3°C° 0 mm 4 mps 720 mmHg 71%
05:00 +3°C° 0 mm 4 mps 720 mmHg 69%
06:00 +1°C° 0 mm 4 mps 720 mmHg 67%
07:00 +3°C° 0 mm 4 mps 721 mmHg 65%
08:00 +4°C° 0 mm 4 mps 721 mmHg 64%
09:00 +5°C° 0 mm 4 mps 722 mmHg 62%
10:00 +6°C° 0 mm 4 mps 722 mmHg 57%
11:00 +7°C° 0 mm 4 mps 721 mmHg 53%
12:00 +10°C° 0 mm 3 mps 722 mmHg 48%
13:00 +10°C° 0 mm 4 mps 721 mmHg 49%
14:00 +10°C° 0 mm 4 mps 721 mmHg 50%
15:00 +8°C° 0 mm 4 mps 720 mmHg 50%
16:00 +7°C° 0 mm 4 mps 720 mmHg 55%
17:00 +5°C° 0 mm 4 mps 720 mmHg 59%
18:00 +4°C° 0 mm 4 mps 720 mmHg 64%
19:00 +3°C° 0 mm 4 mps 720 mmHg 64%
20:00 +3°C° 0 mm 4 mps 720 mmHg 64%
21:00 +3°C° 0 mm 4 mps 721 mmHg 64%
22:00 +1°C° 0 mm 4 mps 720 mmHg 64%
23:00 +1°C° 0 mm 4 mps 720 mmHg 64%

Tomorrow, 16 January, Saturday

Time Temperature Precipitation Wind Pressure Humidity
00:00 +1°C° 0 mm 4 mps 720 mmHg 64%
01:00 +1°C° 0 mm 4 mps 720 mmHg 64%
02:00 0°C° 0 mm 4 mps 720 mmHg 64%
03:00 +1°C° 0 mm 3 mps 720 mmHg 64%
04:00 +1°C° 0 mm 3 mps 721 mmHg 64%
05:00 +1°C° 0 mm 3 mps 721 mmHg 63%
06:00 +1°C° 0 mm 3 mps 721 mmHg 63%
07:00 +2°C° 0 mm 3 mps 722 mmHg 59%
08:00 +3°C° 0 mm 3 mps 722 mmHg 55%
09:00 +5°C° 0 mm 2 mps 723 mmHg 51%
10:00 +7°C° 0 mm 2 mps 723 mmHg 46%
11:00 +9°C° 0 mm 2 mps 723 mmHg 41%
12:00 +12°C° 0 mm 2 mps 723 mmHg 35%
13:00 +12°C° 0 mm 2 mps 723 mmHg 36%
14:00 +12°C° 0 mm 2 mps 722 mmHg 36%
15:00 +12°C° 0 mm 2 mps 722 mmHg 36%
16:00 +10°C° 0 mm 2 mps 722 mmHg 40%
17:00 +8°C° 0 mm 2 mps 722 mmHg 44%
18:00 +6°C° 0 mm 2 mps 722 mmHg 48%
19:00 +6°C° 0 mm 2 mps 723 mmHg 47%
20:00 +5°C° 0 mm 2 mps 723 mmHg 46%
21:00 +5°C° 0 mm 2 mps 723 mmHg 45%
22:00 +5°C° 0 mm 2 mps 723 mmHg 46%
23:00 +4°C° 0 mm 3 mps 724 mmHg 48%

Day after tomorrow, 17 January, Sunday

Time Temperature Precipitation Wind Pressure Humidity
00:00 +5°C° 0 mm 3 mps 724 mmHg 49%
01:00 +5°C° 0 mm 3 mps 723 mmHg 53%
02:00 +5°C° 0 mm 3 mps 723 mmHg 56%
03:00 +5°C° 0 mm 3 mps 722 mmHg 59%
04:00 +5°C° 0 mm 3 mps 722 mmHg 61%
05:00 +5°C° 0 mm 3 mps 723 mmHg 63%
06:00 +5°C° 0 mm 3 mps 723 mmHg 64%
07:00 +7°C° 0 mm 3 mps 723 mmHg 62%
08:00 +8°C° 0 mm 3 mps 723 mmHg 59%
09:00 +9°C° 0 mm 3 mps 724 mmHg 56%
10:00 +11°C° 0 mm 3 mps 724 mmHg 52%
11:00 +13°C° 0 mm 3 mps 723 mmHg 47%
12:00 +15°C° 0 mm 4 mps 723 mmHg 43%
13:00 +15°C° 0 mm 4 mps 723 mmHg 43%
14:00 +15°C° 0 mm 4 mps 722 mmHg 44%
15:00 +15°C° 0 mm 4 mps 722 mmHg 44%
16:00 +13°C° 0 mm 3 mps 722 mmHg 49%
17:00 +11°C° 0 mm 3 mps 722 mmHg 55%
18:00 +8°C° 0 mm 3 mps 722 mmHg 60%
19:00 +8°C° 0 mm 3 mps 722 mmHg 62%
20:00 +8°C° 0 mm 3 mps 722 mmHg 63%
21:00 +8°C° 0 mm 3 mps 722 mmHg 65%
22:00 +7°C° 0 mm 3 mps 722 mmHg 66%
23:00 +7°C° 0 mm 3 mps 722 mmHg 67%

18 January, Monday

Time Temperature Precipitation Wind Pressure Humidity
00:00 +7°C° 0 mm 3 mps 723 mmHg 68%
01:00 +7°C° 0 mm 3 mps 722 mmHg 68%
02:00 +7°C° 0 mm 3 mps 722 mmHg 68%
03:00 +5°C° 0 mm 3 mps 722 mmHg 69%
04:00 +5°C° 0 mm 3 mps 722 mmHg 69%
05:00 +5°C° 0 mm 3 mps 722 mmHg 70%
06:00 +6°C° 0 mm 2 mps 722 mmHg 70%
07:00 +7°C° 0 mm 2 mps 722 mmHg 68%
08:00 +8°C° 0 mm 2 mps 722 mmHg 65%
09:00 +9°C° 0 mm 2 mps 723 mmHg 62%
10:00 +12°C° 0 mm 2 mps 723 mmHg 57%
11:00 +13°C° 0 mm 1 mps 723 mmHg 52%
12:00 +15°C° 0 mm 1 mps 723 mmHg 47%
13:00 +15°C° 0 mm 1 mps 723 mmHg 48%
14:00 +15°C° 0 mm 1 mps 722 mmHg 50%
15:00 +15°C° 0 mm 2 mps 722 mmHg 51%
16:00 +12°C° 0 mm 1 mps 722 mmHg 61%
17:00 +10°C° 0 mm 1 mps 722 mmHg 72%
18:00 +7°C° 0 mm 0 mps 722 mmHg 82%
19:00 +7°C° 0 mm 0 mps 722 mmHg 81%
20:00 +7°C° 0 mm 1 mps 722 mmHg 80%
21:00 +7°C° 0 mm 1 mps 722 mmHg 80%
22:00 +7°C° 0 mm 1 mps 722 mmHg 79%
23:00 +7°C° 0 mm 1 mps 722 mmHg 79%

19 January, Tuesday

Time Temperature Precipitation Wind Pressure Humidity
00:00 +5°C° 0 mm 0 mps 722 mmHg 79%
01:00 +6°C° 0 mm 1 mps 722 mmHg 80%
02:00 +6°C° 0 mm 1 mps 722 mmHg 81%
03:00 +6°C° 0 mm 1 mps 721 mmHg 81%
04:00 +6°C° 0 mm 1 mps 721 mmHg 80%
05:00 +6°C° 0 mm 1 mps 721 mmHg 78%
06:00 +6°C° 0 mm 1 mps 721 mmHg 77%
07:00 +7°C° 0 mm 1 mps 721 mmHg 71%
08:00 +9°C° 0 mm 1 mps 721 mmHg 65%
09:00 +10°C° 0 mm 1 mps 722 mmHg 58%
10:00 +11°C° 0 mm 1 mps 721 mmHg 53%
11:00 +13°C° 0 mm 2 mps 721 mmHg 48%
12:00 +15°C° 0 mm 2 mps 721 mmHg 42%
13:00 +15°C° 0 mm 2 mps 720 mmHg 43%
14:00 +15°C° 0 mm 2 mps 720 mmHg 43%
15:00 +15°C° 0 mm 2 mps 719 mmHg 43%
16:00 +13°C° 0 mm 2 mps 719 mmHg 51%
17:00 +10°C° 0 mm 2 mps 719 mmHg 60%
18:00 +8°C° 0 mm 1 mps 719 mmHg 68%
19:00 +8°C° 0 mm 1 mps 719 mmHg 65%
20:00 +7°C° 0 mm 2 mps 719 mmHg 62%
21:00 +7°C° 0 mm 2 mps 719 mmHg 59%
22:00 +7°C° 0 mm 2 mps 719 mmHg 59%
23:00 +7°C° 0 mm 2 mps 718 mmHg 59%

20 January, Wednesday

Time Temperature Precipitation Wind Pressure Humidity
00:00 +7°C° 0 mm 2 mps 718 mmHg 58%
01:00 +6°C° 0 mm 2 mps 718 mmHg 60%
02:00 +6°C° 0 mm 2 mps 717 mmHg 62%
03:00 +6°C° 0 mm 2 mps 717 mmHg 64%
04:00 +6°C° 0 mm 2 mps 717 mmHg 65%
05:00 +6°C° 0 mm 2 mps 716 mmHg 66%
06:00 +6°C° 0 mm 2 mps 716 mmHg 67%
07:00 +6°C° 0 mm 2 mps 716 mmHg 64%
08:00 +7°C° 0 mm 2 mps 716 mmHg 61%
09:00 +8°C° 0 mm 2 mps 716 mmHg 58%
10:00 +10°C° 0 mm 2 mps 716 mmHg 51%
11:00 +12°C° 0 mm 2 mps 715 mmHg 44%
12:00 +13°C° 0 mm 2 mps 715 mmHg 37%
13:00 +12°C° 0 mm 3 mps 714 mmHg 40%
14:00 +12°C° 0 mm 3 mps 714 mmHg 43%
15:00 +12°C° 0 mm 4 mps 713 mmHg 45%
16:00 +11°C° 0 mm 4 mps 713 mmHg 54%
17:00 +8°C° 0 mm 4 mps 712 mmHg 63%
18:00 +7°C° 0 mm 4 mps 712 mmHg 71%
19:00 +7°C° 0 mm 3 mps 712 mmHg 71%
20:00 +7°C° 0 mm 3 mps 712 mmHg 71%
21:00 +7°C° 0 mm 2 mps 712 mmHg 71%
22:00 +7°C° 0 mm 2 mps 712 mmHg 74%
23:00 +7°C° 0 mm 3 mps 712 mmHg 76%
Show more